CRL632 FMEE-FIMP

Flight info

Callsign CRL632
Flight time 0h 27m
Altitude 15000
Route EPTEK2J EPTEK EPTEK2E
Aircraft A339/H-SADE1E2E3GHIJ3J5M1P2RWXY/LB2D1

Departure

Time 2026-04-29 12:32
Airport Roland Garros Airport (FMEE)

Arrival

Time 2026-04-29 13:00
Airport Sir Seewoosagur Ramgoolam International Airport (FIMP)
Time Latitude Longitude Altitude Speed Heading
2026-04-29 11:51 -20.89014 55.51112 146 ft 0 kts 206°
2026-04-29 12:23 -20.89008 55.51116 144 ft 2 kts 205°
2026-04-29 12:23 -20.88999 55.51120 143 ft 1 kts 204°
2026-04-29 12:24 -20.88985 55.51126 142 ft 2 kts 189°
2026-04-29 12:24 -20.88969 55.51127 141 ft 2 kts 173°
2026-04-29 12:24 -20.88954 55.51123 140 ft 2 kts 159°
2026-04-29 12:24 -20.88940 55.51116 139 ft 2 kts 144°
2026-04-29 12:25 -20.88929 55.51105 138 ft 2 kts 129°
2026-04-29 12:25 -20.88921 55.51094 138 ft 0 kts 117°
2026-04-29 12:25 -20.88919 55.51089 138 ft 0 kts 116°
2026-04-29 12:28 -20.88921 55.51093 138 ft 1 kts 116°
2026-04-29 12:28 -20.88931 55.51116 138 ft 4 kts 115°
2026-04-29 12:28 -20.88941 55.51157 138 ft 6 kts 87°
2026-04-29 12:28 -20.88903 55.51175 135 ft 10 kts 347°
2026-04-29 12:29 -20.88810 55.51144 128 ft 13 kts 342°
2026-04-29 12:29 -20.88735 55.51095 123 ft 13 kts 302°
2026-04-29 12:29 -20.88703 55.50991 123 ft 15 kts 282°
2026-04-29 12:29 -20.88678 55.50874 121 ft 17 kts 282°
2026-04-29 12:30 -20.88651 55.50745 121 ft 17 kts 282°
2026-04-29 12:30 -20.88625 55.50614 120 ft 14 kts 282°
2026-04-29 12:30 -20.88588 55.50527 117 ft 9 kts 309°
2026-04-29 12:30 -20.88584 55.50496 116 ft 2 kts 220°
2026-04-29 12:31 -20.88599 55.50503 117 ft 3 kts 130°
2026-04-29 12:31 -20.88606 55.50523 118 ft 2 kts 104°
2026-04-29 12:31 -20.88613 55.50551 119 ft 11 kts 103°
2026-04-29 12:31 -20.88671 55.50845 121 ft 75 kts 102°
2026-04-29 12:32 -20.88828 55.51619 122 ft 135 kts 103°
2026-04-29 12:32 -20.89062 55.52768 266 ft 171 kts 102°
2026-04-29 12:32 -20.89290 55.53998 894 ft 168 kts 89°
2026-04-29 12:32 -20.88915 55.55129 1559 ft 163 kts 51°
2026-04-29 12:33 -20.88146 55.56024 2107 ft 168 kts 45°
2026-04-29 12:33 -20.87292 55.56961 2501 ft 184 kts 46°
2026-04-29 12:33 -20.86366 55.58028 2906 ft 202 kts 48°
2026-04-29 12:33 -20.85388 55.59213 3283 ft 220 kts 49°
2026-04-29 12:34 -20.84343 55.60516 3707 ft 239 kts 50°
2026-04-29 12:34 -20.83211 55.61956 4174 ft 257 kts 51°
2026-04-29 12:34 -20.82008 55.63501 4853 ft 268 kts 51°
2026-04-29 12:34 -20.80800 55.65059 5657 ft 272 kts 51°
2026-04-29 12:35 -20.79572 55.66647 6455 ft 275 kts 51°
2026-04-29 12:35 -20.78334 55.68250 7212 ft 279 kts 51°
2026-04-29 12:35 -20.77093 55.69856 7960 ft 283 kts 51°
2026-04-29 12:35 -20.75835 55.71485 8694 ft 286 kts 51°
2026-04-29 12:36 -20.74536 55.73166 9427 ft 290 kts 51°
2026-04-29 12:36 -20.73236 55.74848 10136 ft 293 kts 51°
2026-04-29 12:36 -20.71891 55.76588 10650 ft 305 kts 51°
2026-04-29 12:36 -20.70493 55.78396 10973 ft 323 kts 51°
2026-04-29 12:37 -20.68975 55.80361 11282 ft 341 kts 51°
2026-04-29 12:37 -20.67420 55.82370 11733 ft 353 kts 51°
2026-04-29 12:37 -20.65833 55.84420 12404 ft 357 kts 51°
2026-04-29 12:37 -20.64225 55.86496 13084 ft 360 kts 51°
2026-04-29 12:38 -20.62593 55.88596 13725 ft 364 kts 50°
2026-04-29 12:38 -20.60852 55.90646 14335 ft 370 kts 48°
2026-04-29 12:38 -20.59030 55.92723 14777 ft 374 kts 48°
2026-04-29 12:38 -20.57200 55.94800 14946 ft 376 kts 48°
2026-04-29 12:39 -20.55378 55.96868 14950 ft 375 kts 48°
2026-04-29 12:39 -20.53529 55.98968 14953 ft 375 kts 48°
2026-04-29 12:39 -20.51721 56.01023 14950 ft 374 kts 48°
2026-04-29 12:39 -20.49893 56.03099 14947 ft 374 kts 48°
2026-04-29 12:40 -20.48069 56.05168 14944 ft 374 kts 48°
2026-04-29 12:40 -20.46240 56.07244 14942 ft 374 kts 48°
2026-04-29 12:40 -20.44406 56.09342 14942 ft 374 kts 51°
2026-04-29 12:40 -20.42972 56.11711 14935 ft 371 kts 68°
2026-04-29 12:41 -20.42242 56.14379 14938 ft 369 kts 83°
2026-04-29 12:41 -20.42140 56.17189 14946 ft 368 kts 92°
2026-04-29 12:41 -20.42174 56.19939 14944 ft 368 kts 92°
2026-04-29 12:41 -20.42215 56.22736 14942 ft 368 kts 92°
2026-04-29 12:42 -20.42249 56.25531 14941 ft 368 kts 92°
2026-04-29 12:42 -20.42273 56.28350 14941 ft 367 kts 91°
2026-04-29 12:42 -20.42294 56.31081 14941 ft 367 kts 91°
2026-04-29 12:42 -20.42312 56.33862 14940 ft 367 kts 91°
2026-04-29 12:43 -20.42327 56.36628 14940 ft 367 kts 91°
2026-04-29 12:43 -20.42342 56.39417 14941 ft 367 kts 91°
2026-04-29 12:43 -20.42355 56.42209 14941 ft 367 kts 91°
2026-04-29 12:43 -20.42367 56.44967 14940 ft 368 kts 91°
2026-04-29 12:44 -20.42378 56.47682 14941 ft 367 kts 91°
2026-04-29 12:44 -20.42390 56.50483 14929 ft 367 kts 91°
2026-04-29 12:44 -20.42401 56.53244 14661 ft 367 kts 91°
2026-04-29 12:44 -20.42413 56.56001 14311 ft 365 kts 91°
2026-04-29 12:45 -20.42423 56.58691 13950 ft 363 kts 91°
2026-04-29 12:45 -20.42433 56.61421 13573 ft 360 kts 91°
2026-04-29 12:45 -20.42443 56.64151 13188 ft 358 kts 90°
2026-04-29 12:45 -20.42451 56.66799 12812 ft 356 kts 90°
2026-04-29 12:46 -20.42458 56.69502 12429 ft 353 kts 90°
2026-04-29 12:46 -20.42464 56.72166 12053 ft 351 kts 90°
2026-04-29 12:46 -20.42470 56.74829 11675 ft 349 kts 90°
2026-04-29 12:46 -20.42476 56.77403 11309 ft 346 kts 90°
2026-04-29 12:47 -20.42481 56.79995 10943 ft 344 kts 90°
2026-04-29 12:47 -20.42487 56.82569 10573 ft 342 kts 90°
2026-04-29 12:47 -20.42492 56.85148 10242 ft 338 kts 90°
2026-04-29 12:47 -20.42497 56.87651 10158 ft 326 kts 90°
2026-04-29 12:48 -20.42500 56.90076 10104 ft 314 kts 90°
2026-04-29 12:48 -20.42504 56.92442 10050 ft 303 kts 90°
2026-04-29 12:48 -20.42507 56.94665 10003 ft 292 kts 90°
2026-04-29 12:48 -20.42510 56.96843 9885 ft 284 kts 90°
2026-04-29 12:49 -20.42512 56.99002 9580 ft 284 kts 90°
2026-04-29 12:49 -20.42514 57.01138 9285 ft 284 kts 90°
2026-04-29 12:49 -20.42517 57.03256 8997 ft 283 kts 90°
2026-04-29 12:49 -20.42520 57.05412 8714 ft 282 kts 90°
2026-04-29 12:50 -20.42522 57.07529 8440 ft 281 kts 90°
2026-04-29 12:50 -20.42524 57.09631 8169 ft 280 kts 90°
2026-04-29 12:50 -20.42525 57.11748 7900 ft 278 kts 90°
2026-04-29 12:50 -20.42525 57.13859 7629 ft 277 kts 89°
2026-04-29 12:51 -20.42526 57.15956 7364 ft 276 kts 89°
2026-04-29 12:51 -20.42526 57.18044 7100 ft 274 kts 89°
2026-04-29 12:51 -20.42525 57.20117 6836 ft 273 kts 89°
2026-04-29 12:51 -20.42525 57.22170 6574 ft 272 kts 89°
2026-04-29 12:52 -20.42521 57.24226 6307 ft 271 kts 87°
2026-04-29 12:52 -20.42182 57.26230 6034 ft 270 kts 70°
2026-04-29 12:52 -20.41322 57.28045 5770 ft 269 kts 59°
2026-04-29 12:52 -20.40322 57.29771 5510 ft 268 kts 58°
2026-04-29 12:53 -20.39314 57.31486 5250 ft 267 kts 58°
2026-04-29 12:53 -20.38315 57.33201 4996 ft 266 kts 58°
2026-04-29 12:53 -20.37345 57.34878 4751 ft 265 kts 58°
2026-04-29 12:53 -20.36371 57.36570 4530 ft 263 kts 59°
2026-04-29 12:54 -20.35508 57.38296 4319 ft 261 kts 65°
2026-04-29 12:54 -20.34831 57.40084 4130 ft 258 kts 69°
2026-04-29 12:54 -20.34204 57.41906 4010 ft 252 kts 69°
2026-04-29 12:54 -20.33614 57.43640 4006 ft 241 kts 69°
2026-04-29 12:55 -20.33050 57.45294 4001 ft 231 kts 71°
2026-04-29 12:55 -20.32891 57.46974 3872 ft 227 kts 99°
2026-04-29 12:55 -20.33401 57.48553 3710 ft 225 kts 114°
2026-04-29 12:55 -20.34140 57.50025 3583 ft 219 kts 117°
2026-04-29 12:56 -20.34880 57.51434 3433 ft 212 kts 116°
2026-04-29 12:56 -20.35559 57.52781 3312 ft 202 kts 115°
2026-04-29 12:56 -20.36184 57.54071 3185 ft 191 kts 114°
2026-04-29 12:56 -20.36782 57.55327 2910 ft 184 kts 114°
2026-04-29 12:57 -20.37359 57.56543 2641 ft 177 kts 114°
2026-04-29 12:57 -20.37911 57.57703 2374 ft 171 kts 114°
2026-04-29 12:57 -20.38440 57.58811 2127 ft 166 kts 114°
2026-04-29 12:57 -20.38956 57.59889 1892 ft 160 kts 114°
2026-04-29 12:58 -20.39461 57.60942 1657 ft 155 kts 114°
2026-04-29 12:58 -20.39944 57.61949 1432 ft 151 kts 114°
2026-04-29 12:58 -20.40418 57.62936 1211 ft 147 kts 114°
2026-04-29 12:58 -20.40882 57.63903 990 ft 143 kts 114°
2026-04-29 12:59 -20.41328 57.64833 774 ft 139 kts 114°
2026-04-29 12:59 -20.41760 57.65745 555 ft 136 kts 114°
2026-04-29 12:59 -20.42199 57.66649 363 ft 136 kts 114°
2026-04-29 12:59 -20.42628 57.67539 204 ft 133 kts 115°
2026-04-29 13:00 -20.42991 57.68292 178 ft 87 kts 117°
2026-04-29 13:00 -20.43191 57.68706 165 ft 42 kts 117°
2026-04-29 13:00 -20.43289 57.68911 156 ft 30 kts 117°
2026-04-29 13:00 -20.43389 57.69118 145 ft 32 kts 116°
2026-04-29 13:01 -20.43473 57.69291 134 ft 13 kts 117°
2026-04-29 13:01 -20.43514 57.69363 129 ft 11 kts 136°
2026-04-29 13:01 -20.43584 57.69355 129 ft 11 kts 207°
2026-04-29 13:01 -20.43649 57.69313 130 ft 9 kts 230°
2026-04-29 13:02 -20.43649 57.69254 133 ft 7 kts 293°
2026-04-29 13:02 -20.43625 57.69202 137 ft 7 kts 296°
2026-04-29 13:02 -20.43596 57.69143 141 ft 10 kts 297°
2026-04-29 13:02 -20.43556 57.69059 146 ft 14 kts 297°
2026-04-29 13:03 -20.43506 57.68955 153 ft 16 kts 297°
2026-04-29 13:03 -20.43447 57.68833 160 ft 19 kts 297°
2026-04-29 13:03 -20.43381 57.68695 165 ft 20 kts 296°
2026-04-29 13:03 -20.43320 57.68569 170 ft 17 kts 297°
2026-04-29 13:04 -20.43267 57.68460 174 ft 15 kts 297°
2026-04-29 13:04 -20.43218 57.68358 178 ft 15 kts 296°
2026-04-29 13:04 -20.43169 57.68255 182 ft 15 kts 297°
2026-04-29 13:04 -20.43125 57.68163 185 ft 9 kts 292°
2026-04-29 13:05 -20.43146 57.68108 187 ft 8 kts 214°
2026-04-29 13:05 -20.43187 57.68071 189 ft 7 kts 232°
2026-04-29 13:05 -20.43217 57.68024 191 ft 7 kts 237°
2026-04-29 13:05 -20.43243 57.67981 193 ft 6 kts 237°
2026-04-29 13:06 -20.43257 57.67958 194 ft 0 kts 236°
2026-04-29 13:06 -20.43259 57.67955 194 ft 0 kts 236°